STARLINK-32082, 60346

Orbit data source: Space-Track

STARLINK-32082, 60346 is a payload satellite owned by SpaceX/Seattle (US) in LEO that was launched on Fri, 02 Aug 2024 UTC via an FALCON 9 launch vehicle from the Air Force Eastern Test Range (AFETR). Payload-class satellites include a variety of spacecraft equipped with specific instruments for various scientific and technological missions. These include communications satellites like Starlink; space stations such as the ISS; scientific satellites like the Hubble; Earth observation satellites from companies like Planet Labs, Umbra, and HawkEye 360; GPS; miniature CubeSats for education and research; and military/defense satellites.

Loading next visibility...
Identifier
60346, 2024-136T
Orbit
LEO
Last TLE update
9 hours ago
Origin
Manufacturer
SpaceX/Seattle
Mission
Operational Commercial Communications
Bus & Motor
STARLINK V2M, Unknown motor
Mass
730 kg wet, ~700 kg dry
Launch date (UTC)
2024-08-02 (9 months ago)
Launch vehicle
FALCON 9
Launch site
Air Force Eastern Test Range (AFETR)
Object type
Payload
Rocket body
Debris
Shape & HBR
Box + 2 Pan, 29 m
Radar Cross Section
33.884 m², Large (>1 m²)

Expand to show TLE details & history

TLE from 9 hours ago
0 STARLINK-32082
1 60346U 24136T   25128.97619697  .00001032  00000-0  46980-4 0  9994
2 60346  53.1604  50.8783 0001067  82.0057 278.1065 15.30194923 44124
Epoch: 2025-05-08T23:25Z
Definitive object data (Epoch: 2025-05-08T23:25:43.418Z)
Latitude
0.00001°
Longitude
-167.59157°
Altitude
476.027 km
Speed
7.629 km/s
True Right ascension
03h 23m 30s
True Declination
0° 00' 00"
Sunlit
Object was in daylight at TLE epoch
Visualization TLE readout
Latitude
-41.77425°
Longitude
148.91117°
Altitude
489.682 km
Speed
7.62 km/s
Apparent Right ascension
02h 33m 46s
Apparent Declination
-45° 21' 42"
Sunlit
Object is in daylight
Visualization observer readout
Local Sidereal Time
16:44:34
Azimuth
113.665° SE
Elevation
-65.517°
Doppler factor
1
Orbital elements
Apogee altitude
476.218 km
Perigee altitude
474.755 km
Semi-major axis
6,853.624 km
Eccentricity
0.0001067
Inclination
53.1604°
RAAN
50.8783°
Arg. of periapsis
82.0057°
True anomaly
278.0944°
Mean anomaly
278.1065°
Eccentric anomaly
278.10045°
Mean motion
3.82528 °/min
BSTAR
0.00004698
Orbital period
94.11 mins
Loading maneuver chart data...
Loading SW <> Apogee altitude chart data...
Loading historical data...
Loading historical data...
Loading historical data...
Loading historical data...
Loading historical data...
Loading historical data...
Loading historical data...

STARLINK-32082 Visibility forecast

Observer location: undefined°, undefined°

Span
Click to sort rows by Start time (UTC) header in descending order
Start Az.
Max El. time (UTC)
Max El. Az.
Max El.
End time (UTC)
End Az.
5 mins2025-05-09 21:34:22.855Z235.826° WSW2025-05-09 21:36:22.855Z274.75° WNW43.826°2025-05-09 21:39:22.855Z46.626° ENE
4 mins2025-05-10 02:31:22.855Z345.208° N2025-05-10 02:33:22.855Z23.201° NE17.104°2025-05-10 02:35:22.855Z60.164° ENE
5 mins2025-05-10 04:09:22.855Z311.643° NW2025-05-10 04:11:22.855Z324.686° NNW43.903°2025-05-10 04:14:22.855Z128.968° SE
|